Regional Weather Roundup
Issued by NWS Jackson, KY

Home | Current Version | Previous Version | Text Only | Print | Product List | Glossary Off
Versions: 1 2 3 4 5 6 7 8 9 10 11 12 13 14 15 16 17 18 19 20 21 22 23 24 25 26 27

000
ASUS43 KJKL 231610
RWRJKL

EAST KENTUCKY HOURLY WEATHER ROUNDUP
NATIONAL WEATHER SERVICE JACKSON KY
1100 AM EST THU FEB 23 2017

NOTE: "FAIR" INDICATES FEW OR NO CLOUDS BELOW 12,000 FEET WITH
NO SIGNIFICANT WEATHER AND/OR OBSTRUCTIONS TO VISIBILITY.

* THESE REPORTS ARE NOT UNDER NWS QUALITY CONTROL AND MAY NOT
  REPORT WEATHER SUCH AS PRECIPITATION AND FOG.

KYZ079-080-083-085-087-088-110-112-115-119-120-231700
...EASTERN KENTUCKY...

CITY           SKY/WX    TMP DP  RH WIND       PRES   REMARKS
JACKSON        CLOUDY    60  53  77 CALM      29.90S
LONDON         CLOUDY    57  53  86 S3        29.90F
SOMERSET*      CLOUDY    61  55  82 S6        29.90F
MONTICELLO*    CLOUDY    64  57  78 N8        29.90F
WILLIAMSBURG*  PTSUNNY   59  57  94 SE6       29.91S
MIDDLESBORO*   CLOUDY    59  55  87 CALM      29.93F
HARLAN APT*    CLOUDY    52  50  93 CALM      29.93F
PIKE CO APT*   CLOUDY    55  54  96 SE5       29.91F
BIG SANDY APT* CLOUDY    59  54  84 S3        29.90F
MOREHEAD APT*  CLOUDY    59  55  88 CALM      29.89F
ASHLAND*       CLOUDY    55  54  94 CALM      29.86F
$$

KYZ035-036-041-042-044-050-067-078-099-231700
...CENTRAL KENTUCKY...

CITY           SKY/WX    TMP DP  RH WIND       PRES   REMARKS
MT STERLING*   CLOUDY    59  55  88 SW6       29.89F
FLEMING/MASON* CLOUDY    59  56  90 SW7       29.88S
DANVILLE*      CLOUDY    59  55  88 SW8       29.89F
LEXINGTON      CLOUDY    60  55  83 S10       29.87F
FRANKFORT      CLOUDY    63  55  75 S10       29.85S
LOUISVILLE     CLOUDY    67  56  67 S10       29.83S
LEBANON*       CLOUDY    59  55  88 S12       29.87F
GLASGOW*       CLOUDY    62  57  83 S8        29.87F
BOWLING GREEN  CLOUDY    64  57  78 S13       29.86F
$$

KYZ091>093-OHZ055-061-077-WVZ005-015-034-035-042-231700
...SOUTHERN OHIO/WEST VIRGINIA...

CITY           SKY/WX    TMP DP  RH WIND       PRES   REMARKS
COVINGTON      PTSUNNY   63  57  81 SW14      29.81S
COLUMBUS       CLOUDY    64  57  78 S10       29.80F
DAYTON         CLOUDY    61  57  87 SW9       29.81S
WILMINGTON     PTSUNNY   63  57  81 SW13      29.81F
HUNTINGTON     CLOUDY    58  53  84 S6        29.88S
CHARLESTON     CLOUDY    60  53  77 S7        29.89F
PINEVILLE*     CLOUDY    54  51  90 MISG      29.99F
BECKLEY        CLOUDY    58  50  75 S6        29.95S
BLUEFIELD      CLOUDY    59  47  64 SW3       29.97S
LOGAN CO APT*  CLOUDY    55  52  88 CALM      29.92S
$$

VAZ002-007-008-TNZ017-027-036-066-071-231700
...SOUTHWEST VIRGINIA/EAST TENNESSEE...

CITY           SKY/WX    TMP DP  RH WIND       PRES   REMARKS
WISE*          CLOUDY    59  55  88 CALM      29.96F
JONESVILLE*    CLOUDY    55  54  94 CALM      29.96S
ABINGDON*      MOSUNNY   60  56  86 E5        29.95F
BRISTOL        PTSUNNY   58  52  80 CALM      29.94F
MORRISTOWN*    SUNNY     61  57  88 VRB3      29.92F
SEVIERVILLE*   PTSUNNY   57  54  88 CALM      29.92F
KNOXVILLE      FOG       55  54  96 CALM      29.92S VSB 3/4
LAFOLLETTE*    CLOUDY    54  54 100 CALM      29.96S
OAK RIDGE      CLOUDY    54  52  93 CALM      29.94S FOG
CROSSVILLE     PTSUNNY   61  53  75 S8        29.92S
NASHVILLE      PTSUNNY   66  56  70 S8        29.87F
$$

...KEY TO REMARKS...
VSB - VISIBILITY IN MILES
WCI - WIND CHILL INDEX
HX  - HEAT INDEX

$$




USA.gov is the U.S. government's official web portal to all federal, state and local government web resources and services.